#timestamp,LO_Frequency,Hit,StdDev 
1635328815.4,286046991.0,N
1635328835.2,286046991.1,N
1635328855.0,286046989.6,Y
1635328856.0,286046989.6,P
1635328875.8,286046994.8,N
1635328895.6,286046992.3,N
1635328915.5,286046990.9,Y
1635328935.3,286046994.2,P
1635328955.1,286046999.3,N
1635328975.9,286047003.0,N
1635328995.7,286047010.5,N
1635329015.6,286047012.0,N
1635329035.4,286047010.6,N
1635329055.2,286047011.5,N
1635329075.1,286047004.8,N
1635329076.0,286047004.8,N
1635329095.8,286047002.9,N
1635329115.6,286047001.5,N
1635329135.5,286047002.6,N
1635329155.3,286047002.6,N
1635329175.2,286046997.2,N
1635329195.9,286046996.8,N
1635329215.7,286047001.1,N
1635329235.6,286046998.2,N
1635329255.4,286046997.2,N
1635329275.2,286046995.5,N
1635329295.1,286046994.0,N
1635329296.0,286046994.0,N
1635329315.8,286046998.8,N
1635329335.7,286046997.4,N
1635329355.5,286047002.4,N
1635329375.3,286047007.5,N
1635329395.2,286047006.9,N
1635329415.0,286047004.0,N
1635329415.9,286047004.0,N
1635329435.8,286047003.7,N
1635329455.6,286047001.4,N
1635329475.4,286047003.6,N
1635329495.3,286047000.8,N
1635329515.1,286046995.3,N
1635329535.9,286046995.8,N
1635329555.7,286046997.0,N
1635329575.5,286046998.4,N
1635329595.4,286046990.3,N
1635329615.2,286046989.8,N
1635329635.0,286046993.3,N
1635329635.9,286046993.3,N
1635329655.8,286047004.1,N
1635329675.6,286047003.9,N
1635329695.5,286047001.4,N
1635329715.3,286047007.4,N
1635329735.1,286047009.8,N
1635329755.9,286047010.2,N
1635329775.7,286047012.0,N
1635329795.5,286047008.5,N
1635329815.4,286047004.1,N
1635329835.2,286047004.4,N
1635329855.1,286047005.5,N
1635329856.0,286047005.5,N
1635329875.8,286047008.7,N
1635329895.6,286047009.2,N
1635329915.5,286047003.9,N
1635329935.3,286047003.6,N
1635329955.1,286047007.2,N
1635329975.9,286047010.8,N
1635329995.7,286047011.2,N
1635330015.6,286047013.0,N
1635330035.4,286047015.9,N
1635330055.2,286047013.8,N
1635330075.1,286047010.7,N
1635330076.0,286047010.7,N
1635330095.8,286047008.6,N
1635330115.7,286047006.5,N
1635330135.5,286047005.4,N
1635330155.3,286047006.6,N
1635330175.2,286047012.0,N
1635330195.0,286047017.4,Y
1635330195.9,286047017.4,P
1635330215.8,286047009.5,N
1635330235.6,286047008.4,N
1635330255.4,286047004.5,N
1635330275.3,286047008.4,N
1635330295.1,286047012.8,Y
1635330315.8,286047004.1,P
1635330335.7,286047008.9,P
1635330355.5,286047006.1,N
1635330375.4,286047009.0,Y
1635330395.2,286047005.8,P
1635330415.0,286047008.4,P
1635330415.9,286047008.4,P
1635330435.8,286047010.2,Y
1635330455.6,286047003.9,P
1635330475.5,286047001.9,N
1635330495.3,286046999.8,N
1635330515.1,286047002.8,N
1635330535.9,286047000.4,N
1635330555.7,286046996.9,N
1635330575.6,286046994.0,N
1635330595.4,286046994.2,N
1635330615.2,286046997.3,N
1635330635.1,286046998.0,N
1635330636.0,286046998.0,N
1635330655.8,286046997.1,N
1635330675.6,286047000.3,N
1635330695.5,286047002.3,N
1635330715.3,286047000.9,N
1635330735.2,286046999.7,N
1635330755.9,286047003.5,N
1635330775.7,286047004.0,N
1635330795.6,286047002.9,N
1635330815.4,286047000.9,N
1635330835.2,286047000.0,N
1635330855.1,286046998.0,N
1635330856.0,286046998.0,N
1635330875.8,286046992.4,N
1635330895.7,286046986.5,Y
1635330915.5,286046984.5,P
1635330935.3,286046988.3,N
1635330955.2,286046983.6,N
1635330975.0,286046981.8,N
1635330975.9,286046981.8,N
1635330995.8,286046978.5,Y
1635331015.6,286046987.3,P
1635331035.4,286046987.9,P
1635331055.3,286046985.7,P
1635331075.1,286046982.1,Y
1635331095.9,286046996.8,P
1635331115.7,286047005.6,N
1635331135.5,286047009.0,N
1635331155.4,286047009.9,N
1635331175.2,286047009.0,N
1635331195.0,286047001.4,N
1635331195.9,286047001.4,N
1635331215.8,286046998.1,N
1635331235.6,286046993.5,N
1635331255.5,286046994.4,N
1635331275.3,286046987.3,N
1635331295.1,286046985.7,N
1635331315.9,286046988.8,N
1635331335.7,286046989.2,N
1635331355.5,286046984.5,N
1635331375.4,286046980.0,N
1635331395.2,286046974.5,N
1635331415.1,286046972.7,N
1635331416.0,286046972.7,N
1635331435.8,286046971.4,N
1635331455.6,286046971.8,N
1635331475.5,286046967.8,N
1635331495.3,286046969.1,N
1635331515.1,286046967.9,N
1635331535.9,286046967.4,N
1635331555.7,286046969.1,N
1635331575.6,286046972.9,N
1635331595.4,286046971.3,N
1635331615.2,286046967.7,N
1635331635.1,286046966.2,N
1635331636.0,286046966.2,N
1635331655.8,286046971.8,N
1635331675.7,286046972.4,N
1635331695.5,286046970.4,N
1635331715.3,286046967.9,N
1635331735.2,286046969.3,N
1635331755.9,286046974.5,N
1635331775.7,286046978.1,N
1635331795.6,286046979.9,N
1635331815.4,286046976.9,N
1635331835.3,286046977.3,Y
1635331855.1,286047009.2,P
1635331856.0,286047009.2,N
1635331875.8,286047004.6,N
1635331895.7,286047010.7,N
1635331915.5,286047012.9,N
1635331935.3,286047012.6,N
1635331955.2,286047013.2,N
1635331975.0,286047013.9,N
1635331975.9,286047013.9,N
1635331995.8,286047018.6,N
1635332015.6,286047019.2,N
1635332035.4,286047024.1,N
1635332055.3,286047024.3,N
1635332075.1,286047024.2,N
1635332095.9,286047026.4,N
1635332115.7,286047022.5,N
1635332135.5,286047012.9,N
1635332155.4,286047008.0,N
1635332175.2,286047006.9,N
1635332195.0,286047001.0,N
1635332195.9,286047001.0,N
1635332215.8,286046997.0,N
1635332235.6,286046996.6,N
1635332255.5,286046998.4,N
1635332275.3,286047000.1,N
1635332295.1,286047006.0,N
1635332315.9,286047004.6,N
1635332335.7,286047006.8,N
1635332355.6,286047010.0,N
1635332375.4,286047018.1,N
1635332395.2,286047018.9,N
